FW6717 Weather Reports


Display with metric or nautical units.
time (UTC)temp
F
wind
direction
speed
MPH
gust
MPH
rain 1hr
in
rain 24hr
in
rain mn
in
humidity
%
barometer
mb
20260507003546 80 136 6.0 11.0 0.00 0.00 0.00 85 1007.9
20260507003049 80 130 6.0 10.0 0.00 0.00 0.00 85 1007.8
20260507002542 81 121 4.0 10.0 0.00 0.00 0.00 85 1007.7
20260507002042 81 117 4.0 11.0 0.00 0.00 0.00 85 1007.6
20260507001544 81 99 4.0 12.0 0.00 0.00 0.00 85 1007.7
20260507001041 81 114 5.0 12.0 0.00 0.00 0.00 84 1007.6
20260507000545 81 149 4.0 12.0 0.00 0.00 0.00 84 1007.6
20260507000043 81 127 7.0 12.0 0.00 0.00 0.00 84 1007.5
20260506235541 81 126 5.0 11.0 0.00 0.00 0.00 84 1007.5
20260506235043 81 134 8.0 11.0 0.00 0.00 0.00 84 1007.4
20260506234540 81 78 4.0 11.0 0.00 0.00 0.00 84 1007.3
20260506234042 82 129 6.0 12.0 0.00 0.00 0.00 83 1007.3
20260506233540 82 132 6.0 12.0 0.00 0.00 0.00 83 1007.3
20260506233045 82 126 5.0 13.0 0.00 0.00 0.00 83 1007.4
20260506232540 82 118 5.0 13.0 0.00 0.00 0.00 83 1007.3
20260506232040 82 105 7.0 10.0 0.00 0.00 0.00 82 1007.2
20260506231541 82 126 5.0 12.0 0.00 0.00 0.00 83 1007.2
20260506231039 82 161 6.0 13.0 0.00 0.00 0.00 82 1007.3
20260506230538 82 131 3.0 14.0 0.00 0.00 0.00 82 1007.2
20260506230038 83 120 6.0 14.0 0.00 0.00 0.00 81 1007.1
20260506225539 83 165 3.0 9.0 0.00 0.00 0.00 81 1007.1
20260506225039 83 141 4.0 11.0 0.00 0.00 0.00 81 1007.1
20260506224538 83 159 5.0 11.0 0.00 0.00 0.00 81 1007.1
20260506224037 83 110 3.0 12.0 0.00 0.00 0.00 80 1007.1
20260506223537 84 152 6.0 12.0 0.00 0.00 0.00 80 1007.1
20260506223037 84 117 5.0 12.0 0.00 0.00 0.00 79 1007.0
20260506222537 84 153 5.0 12.0 0.00 0.00 0.00 79 1006.9
20260506222036 84 141 4.0 12.0 0.00 0.00 0.00 78 1007.0
20260506221537 84 121 5.0 12.0 0.00 0.00 0.00 78 1007.0
20260506221036 84 179 3.0 10.0 0.00 0.00 0.00 79 1006.9
20260506220536 84 137 3.0 10.0 0.00 0.00 0.00 80 1007.0
20260506220039 84 148 3.0 12.0 0.00 0.00 0.00 79 1007.0
20260506215539 84 98 5.0 12.0 0.00 0.00 0.00 79 1007.1
20260506215036 84 147 3.0 9.0 0.00 0.00 0.00 78 1007.1
20260506214535 85 197 4.0 8.0 0.00 0.00 0.00 77 1007.0
20260506214035 85 102 3.0 10.0 0.00 0.00 0.00 78 1007.0
20260506213534 85 129 4.0 10.0 0.00 0.00 0.00 77 1007.0
20260506213034 85 136 4.0 9.0 0.00 0.00 0.00 77 1007.0
20260506212534 85 186 3.0 10.0 0.00 0.00 0.00 76 1007.1
20260506212038 86 123 4.0 10.0 0.00 0.00 0.00 75 1007.0
20260506211535 86 188 4.0 9.0 0.00 0.00 0.00 75 1007.0
20260506211034 86 112 3.0 7.0 0.00 0.00 0.00 75 1007.0
20260506210534 86 132 3.0 11.0 0.00 0.00 0.00 75 1007.0
20260506210033 86 118 5.0 11.0 0.00 0.00 0.00 75 1007.0
20260506205537 86 118 5.0 12.0 0.00 0.00 0.00 75 1007.1
20260506205034 87 125 4.0 11.0 0.00 0.00 0.00 73 1007.1
20260506204534 87 202 3.0 12.0 0.00 0.00 0.00 75 1007.1
20260506204033 86 107 7.0 12.0 0.00 0.00 0.00 74 1007.2
20260506203532 87 130 5.0 11.0 0.00 0.00 0.00 74 1007.3
20260506203034 86 176 5.0 11.0 0.00 0.00 0.00 74 1007.2
20260506202531 86 124 4.0 10.0 0.00 0.00 0.00 74 1007.3
20260506202031 86 192 5.0 10.0 0.00 0.00 0.00 75 1007.4
20260506201532 85 107 4.0 12.0 0.00 0.00 0.00 77 1007.6
20260506201031 85 160 6.0 12.0 0.00 0.00 0.00 77 1007.6
20260506200533 85 125 6.0 12.0 0.00 0.00 0.00 76 1007.6
20260506200031 86 130 7.0 11.0 0.00 0.00 0.00 75 1007.7
20260506195531 86 131 2.0 9.0 0.00 0.00 0.00 76 1007.7
20260506195033 86 159 2.0 10.0 0.00 0.00 0.00 75 1007.7
20260506194530 86 111 3.0 10.0 0.00 0.00 0.00 75 1007.9
20260506194031 87 171 3.0 8.0 0.00 0.00 0.00 74 1008.1
20260506193529 87 164 4.0 8.0 0.00 0.00 0.00 74 1008.0
20260506193032 86 200 3.0 10.0 0.00 0.00 0.00 75 1008.0
20260506192533 86 126 3.0 10.0 0.00 0.00 0.00 75 1008.0
20260506192029 85 184 4.0 11.0 0.00 0.00 0.00 77 1008.2
20260506191529 85 160 5.0 11.0 0.00 0.00 0.00 77 1008.2
20260506191029 84 89 8.0 13.0 0.00 0.00 0.00 78 1008.3
20260506190532 84 130 5.0 13.0 0.00 0.00 0.00 79 1008.3
20260506190028 84 145 5.0 11.0 0.00 0.00 0.00 79 1008.5
20260506185528 83 133 3.0 8.0 0.00 0.00 0.00 81 1008.5
20260506185028 82 130 2.0 9.0 0.00 0.00 0.00 81 1008.6
20260506184528 83 200 4.0 9.0 0.00 0.00 0.00 81 1008.5
20260506184030 83 164 2.0 9.0 0.00 0.00 0.00 80 1008.6
20260506183527 83 175 3.0 13.0 0.00 0.00 0.00 80 1008.6
20260506183027 83 187 6.0 13.0 0.00 0.00 0.00 79 1008.6
20260506182527 84 174 2.0 7.0 0.00 0.00 0.00 78 1008.6
20260506182027 84 117 1.0 9.0 0.00 0.00 0.00 78 1008.6
20260506181528 85 155 3.0 9.0 0.00 0.00 0.00 77 1008.6
20260506181027 85 176 3.0 10.0 0.00 0.00 0.00 76 1008.6
20260506180527 86 201 0.0 4.0 0.00 0.00 0.00 74 1008.7
20260506180026 86 229 2.0 4.0 0.00 0.00 0.00 73 1008.6
20260506175525 87 196 0.0 6.0 0.00 0.00 0.00 73 1008.6
20260506175028 87 191 1.0 7.0 0.00 0.00 0.00 73 1008.6
20260506174525 87 202 3.0 7.0 0.00 0.00 0.00 72 1008.6
20260506174024 87 249 2.0 4.0 0.00 0.00 0.00 73 1008.4
20260506173523 86 242 0.0 4.0 0.00 0.00 0.00 75 1008.5
20260506173022 86 210 1.0 5.0 0.00 0.00 0.00 76 1008.5
20260506172520 85 164 2.0 6.0 0.00 0.00 0.00 77 1008.5
20260506172019 85 136 1.0 7.0 0.00 0.00 0.00 78 1008.7
20260506171521 84 172 4.0 7.0 0.00 0.00 0.00 79 1008.8
20260506171017 84 218 1.0 5.0 0.00 0.00 0.00 81 1008.6
20260506170515 83 188 2.0 6.0 0.00 0.00 0.00 83 1008.6
20260506170017 82 180 2.0 6.0 0.00 0.00 0.00 83 1008.6
20260506165515 82 222 1.0 4.0 0.00 0.00 0.00 84 1008.7
20260506165011 81 192 1.0 8.0 0.00 0.00 0.00 86 1008.8
20260506164510 81 196 2.0 8.0 0.00 0.00 0.00 87 1008.8
20260506164009 81 200 1.0 4.0 0.00 0.00 0.00 87 1008.8
20260506163507 80 192 1.0 5.0 0.00 0.00 0.00 87 1008.9
20260506163012 79 185 1.0 5.0 0.00 0.00 0.00 88 1008.8
20260506162507 79 195 2.0 6.0 0.00 0.00 0.00 89 1008.7
20260506162005 79 209 2.0 6.0 0.00 0.00 0.00 89 1008.7
20260506161504 79 180 2.0 6.0 0.00 0.00 0.00 89 1008.8
20260506161004 79 225 0.0 6.0 0.00 0.00 0.00 90 1008.7
20260506160506 79 202 3.0 8.0 0.00 0.00 0.00 89 1008.6
20260506160007 79 248 2.0 7.0 0.00 0.00 0.00 89 1008.5
20260506155502 79 217 2.0 9.0 0.00 0.00 0.00 89 1008.5
20260506155001 79 163 2.0 10.0 0.00 0.00 0.00 89 1008.3
20260506154628 79 192 2.0 8.0 0.00 0.00 0.00 89 1008.2
20260506154102 79 182 4.0 10.0 0.00 0.00 0.00 88 1008.1
20260506153601 79 199 2.0 10.0 0.00 0.00 0.00 88 1008.0
20260506153110 79 202 2.0 7.0 0.00 0.00 0.00 89 1008.0
20260506152559 79 175 2.0 7.0 0.00 0.00 0.00 89 1008.0
20260506152100 79 176 1.0 9.0 0.00 0.00 0.00 89 1008.0
20260506151600 79 146 2.0 8.0 0.00 0.00 0.00 89 1007.9
20260506151058 79 189 3.0 8.0 0.00 0.00 0.00 89 1007.9
20260506150558 79 133 2.0 7.0 0.00 0.00 0.00 89 1008.1
20260506145558 79 172 1.0 7.0 0.00 0.00 0.00 89 1008.2
20260506145057 79 233 2.0 9.0 0.00 0.00 0.00 89 1007.9
20260506144557 79 192 3.0 9.0 0.00 0.00 0.00 88 1007.9
20260506144056 79 183 2.0 7.0 0.00 0.00 0.00 88 1007.9
20260506143556 79 194 3.0 7.0 0.00 0.00 0.00 88 1007.9
20260506143105 79 188 2.0 7.0 0.00 0.00 0.00 88 1007.9
20260506142556 79 206 2.0 7.0 0.00 0.00 0.00 88 1008.0
20260506142055 79 186 2.0 7.0 0.00 0.00 0.00 88 1008.0
20260506141555 79 213 2.0 5.0 0.00 0.00 0.00 88 1008.0
20260506141057 79 179 2.0 9.0 0.00 0.00 0.00 87 1008.0
20260506140555 79 165 2.0 9.0 0.00 0.00 0.00 87 1008.0
20260506140058 79 121 1.0 10.0 0.00 0.00 0.00 87 1007.9
20260506135555 79 185 2.0 7.0 0.00 0.00 0.00 87 1007.9
20260506135052 79 167 2.0 8.0 0.00 0.00 0.00 87 1008.0
20260506134553 79 167 3.0 8.0 0.00 0.00 0.00 87 1007.8
20260506134052 79 142 2.0 7.0 0.00 0.00 0.00 88 1007.8
20260506133552 79 222 2.0 7.0 0.00 0.00 0.00 88 1007.8
20260506133051 79 190 1.0 5.0 0.00 0.00 0.00 88 1007.8
20260506132550 78 153 1.0 6.0 0.00 0.00 0.00 88 1007.9
20260506132054 78 173 1.0 6.0 0.00 0.00 0.00 88 1007.9
20260506131650 78 172 1.0 6.0 0.00 0.00 0.00 88 1008.0
20260506131050 78 198 2.0 7.0 0.00 0.00 0.00 88 1007.8
20260506130552 78 188 2.0 10.0 0.00 0.00 0.00 89 1007.7
20260506130050 78 166 3.0 10.0 0.00 0.00 0.00 89 1007.7
20260506125552 78 158 2.0 9.0 0.00 0.00 0.00 89 1007.7
20260506125052 78 159 1.0 9.0 0.00 0.00 0.00 89 1007.6
20260506124549 78 123 2.0 6.0 0.00 0.00 0.00 89 1007.6
20260506124052 78 180 1.0 7.0 0.00 0.00 0.00 89 1007.5
20260506123552 78 199 1.0 5.0 0.00 0.00 0.00 89 1007.6
20260506123049 78 140 1.0 4.0 0.00 0.00 0.00 89 1007.5
20260506122548 78 150 1.0 7.0 0.00 0.00 0.00 89 1007.5
20260506122047 78 150 3.0 7.0 0.00 0.00 0.00 88 1007.4
20260506121547 78 130 3.0 7.0 0.00 0.00 0.00 88 1007.5
20260506121047 78 139 2.0 7.0 0.00 0.00 0.00 88 1007.5
20260506120547 78 146 1.0 4.0 0.00 0.00 0.00 88 1007.4
20260506120056 78 146 2.0 4.0 0.00 0.00 0.00 88 1007.3
20260506115548 78 173 1.0 3.0 0.00 0.00 0.00 88 1007.3
20260506115047 78 173 0.0 4.0 0.00 0.00 0.00 88 1007.3
20260506114555 78 175 1.0 6.0 0.00 0.00 0.00 88 1007.3
20260506114049 78 173 1.0 6.0 0.00 0.00 0.00 88 1007.4
20260506113549 78 227 0.0 6.0 0.00 0.00 0.00 88 1007.2
20260506113046 78 227 2.0 6.0 0.00 0.00 0.00 88 1007.1
20260506112546 78 159 1.0 5.0 0.00 0.00 0.00 88 1007.1
20260506112048 78 159 1.0 6.0 0.00 0.00 0.00 88 1007.1
20260506111545 78 153 2.0 6.0 0.00 0.00 0.00 88 1007.1
20260506111045 78 157 1.0 5.0 0.00 0.00 0.00 88 1007.1
20260506110545 78 147 2.0 6.0 0.00 0.00 0.00 88 1007.1
20260506110054 78 147 1.0 4.0 0.00 0.00 0.00 88 1007.2
20260506105545 78 178 1.0 4.0 0.00 0.00 0.00 88 1007.1
20260506105044 78 180 1.0 3.0 0.00 0.00 0.00 88 1007.1
20260506104544 78 180 1.0 3.0 0.00 0.00 0.00 88 1007.1
20260506104145 78 180 1.0 4.0 0.00 0.00 0.00 88 1007.0
20260506103543 78 180 1.0 6.0 0.00 0.00 0.00 88 1007.0
20260506103043 78 111 1.0 6.0 0.00 0.00 0.00 88 1007.2
20260506102543 78 171 1.0 6.0 0.00 0.00 0.00 88 1007.2
20260506102044 78 132 1.0 4.0 0.00 0.00 0.00 88 1007.1
20260506101544 78 178 1.0 5.0 0.00 0.00 0.00 88 1007.0
20260506101047 78 123 3.0 5.0 0.00 0.00 0.00 88 1006.9
20260506100543 78 126 0.0 3.0 0.00 0.00 0.00 88 1006.9
20260506100046 78 182 1.0 6.0 0.00 0.00 0.00 88 1006.9
20260506095545 78 161 2.0 6.0 0.00 0.00 0.00 88 1006.9
20260506095042 78 175 2.0 6.0 0.00 0.00 0.00 88 1006.9
20260506094601 78 155 2.0 7.0 0.00 0.00 0.00 88 1006.8
20260506094042 78 159 2.0 7.0 0.00 0.00 0.00 88 1006.8
20260506093541 78 144 1.0 5.0 0.00 0.00 0.00 87 1006.9
20260506093044 78 188 1.0 4.0 0.00 0.00 0.00 87 1006.8
20260506092542 78 189 0.0 4.0 0.00 0.00 0.00 87 1006.9
20260506092041 78 189 1.0 6.0 0.00 0.00 0.00 87 1006.9
20260506091541 78 202 2.0 6.0 0.00 0.00 0.00 87 1006.7
20260506091040 78 161 3.0 7.0 0.00 0.00 0.00 87 1006.6
20260506090541 78 203 3.0 8.0 0.00 0.00 0.00 87 1006.6
20260506090041 78 232 2.0 7.0 0.00 0.00 0.00 87 1006.6
20260506085540 78 96 1.0 6.0 0.00 0.00 0.00 87 1006.6
20260506085040 78 126 2.0 9.0 0.00 0.00 0.00 87 1006.6
20260506084540 78 96 2.0 9.0 0.00 0.00 0.00 87 1006.6
20260506084044 78 217 3.0 10.0 0.00 0.00 0.00 87 1006.7
20260506083540 78 138 3.0 10.0 0.00 0.00 0.00 87 1006.5
20260506083040 78 165 4.0 10.0 0.00 0.00 0.00 87 1006.6
20260506082543 78 195 1.0 6.0 0.00 0.00 0.00 87 1006.6
20260506082039 78 202 2.0 9.0 0.00 0.00 0.00 87 1006.5
20260506081539 78 221 1.0 9.0 0.00 0.00 0.00 87 1006.5
20260506081038 78 156 3.0 9.0 0.00 0.00 0.00 87 1006.5
20260506080538 78 207 2.0 7.0 0.00 0.00 0.00 87 1006.5
20260506073040 78 209 3.0 14.0 0.00 0.00 0.00 85 1006.6
20260506072532 78 191 2.0 14.0 0.00 0.00 0.00 85 1006.8
20260506072034 78 155 3.0 8.0 0.00 0.00 0.00 85 1006.9
20260506071534 78 188 3.0 8.0 0.00 0.00 0.00 86 1007.0
20260506071030 78 192 2.0 7.0 0.00 0.00 0.00 86 1007.1
20260506070529 78 190 3.0 10.0 0.00 0.00 0.00 85 1007.2
20260506062024 78 171 3.0 9.0 0.00 0.00 0.00 85 1007.7
20260506061531 78 208 2.0 9.0 0.00 0.00 0.00 86 1007.6
20260506061026 78 223 4.0 9.0 0.00 0.00 0.00 86 1007.6
20260506060522 78 167 2.0 8.0 0.00 0.00 0.00 87 1007.6
20260506051017 78 184 2.0 8.0 0.00 0.00 0.00 86 1007.9
20260506050518 78 207 3.0 11.0 0.00 0.00 0.00 86 1007.9
20260506045015 78 177 3.0 12.0 0.00 0.00 0.00 86 1007.7
20260506044515 78 170 5.0 15.0 0.00 0.00 0.00 86 1007.9
20260506044018 78 216 4.0 15.0 0.00 0.00 0.00 86 1007.9
20260506043514 78 194 3.0 16.0 0.00 0.00 0.00 86 1007.7
20260506043014 78 199 5.0 16.0 0.00 0.00 0.00 86 1007.7
20260506042516 78 254 4.0 11.0 0.00 0.00 0.00 86 1007.6
20260506042018 78 155 4.0 11.0 0.00 0.00 0.00 86 1007.8
20260506041517 78 166 3.0 6.0 0.00 0.00 0.00 86 1007.7
20260506041013 78 179 2.0 8.0 0.00 0.00 0.00 87 1007.7
20260506040513 78 188 3.0 11.0 0.00 0.00 0.00 87 1007.6
20260506040037 78 155 3.0 11.0 0.00 0.00 0.00 87 1007.5
20260506035513 78 132 5.0 11.0 0.00 0.00 0.00 87 1007.5
20260506035013 78 164 3.0 10.0 0.00 0.00 0.00 87 1007.5
20260506034513 78 211 3.0 12.0 0.00 0.00 0.00 87 1007.4
20260506034013 78 182 4.0 12.0 0.00 0.00 0.00 87 1007.3
20260506033512 78 134 5.0 11.0 0.00 0.00 0.00 87 1007.2
20260506033012 78 191 4.0 17.0 0.00 0.00 0.00 87 1007.2
20260506032512 78 145 4.0 17.0 0.00 0.00 0.00 87 1007.0
20260506032012 78 190 4.0 15.0 0.00 0.00 0.00 87 1007.0
20260506031526 78 202 6.0 12.0 0.00 0.00 0.00 87 1006.9
20260506031015 78 214 4.0 16.0 0.00 0.00 0.00 87 1007.0
20260506030511 78 178 3.0 16.0 0.00 0.00 0.00 87 1006.9
20260506030011 78 236 4.0 11.0 0.00 0.00 0.00 87 1006.8
20260506025511 78 108 5.0 14.0 0.00 0.00 0.00 87 1006.8
20260506025013 78 173 4.0 14.0 0.00 0.00 0.00 87 1006.8
20260506024517 78 186 4.0 11.0 0.00 0.00 0.00 87 1006.7
20260506024010 78 166 5.0 13.0 0.00 0.00 0.00 87 1006.7
20260506023510 78 184 6.0 13.0 0.00 0.00 0.00 87 1006.8
20260506023011 78 169 1.0 11.0 0.00 0.00 0.00 87 1006.7
20260506022509 78 179 5.0 10.0 0.00 0.00 0.00 86 1006.8
20260506022009 78 134 4.0 10.0 0.00 0.00 0.00 86 1006.7
20260506021511 78 173 4.0 11.0 0.00 0.00 0.00 86 1006.5
20260506021009 78 196 3.0 12.0 0.00 0.00 0.00 86 1006.5
20260506020512 78 94 5.0 15.0 0.00 0.00 0.00 86 1006.4
20260506020009 78 191 4.0 11.0 0.00 0.00 0.00 86 1006.4
20260506015510 78 183 5.0 11.0 0.00 0.00 0.00 85 1006.2
20260506015008 78 215 3.0 10.0 0.00 0.00 0.00 85 1006.3
20260506014512 78 194 5.0 12.0 0.00 0.00 0.00 85 1006.3
20260506014007 78 138 4.0 12.0 0.00 0.00 0.00 85 1006.2
20260506013512 78 208 4.0 17.0 0.00 0.00 0.00 85 1006.0
20260506013007 78 137 2.0 17.0 0.00 0.00 0.00 85 1006.0
20260506012508 78 196 2.0 15.0 0.00 0.00 0.00 85 1005.9
20260506012009 79 181 4.0 15.0 0.00 0.00 0.00 85 1005.7
20260506011507 79 176 4.0 9.0 0.00 0.00 0.00 84 1005.7
20260506011007 79 179 2.0 11.0 0.00 0.00 0.00 84 1005.8
20260506010507 79 184 5.0 11.0 0.00 0.00 0.00 84 1005.6
20260506010012 79 167 5.0 11.0 0.00 0.00 0.00 84 1005.7
20260506005507 79 159 5.0 11.0 0.00 0.00 0.00 83 1005.7
20260506005009 79 127 6.0 11.0 0.00 0.00 0.00 83 1005.7
20260506004511 79 223 4.0 12.0 0.00 0.00 0.00 83 1005.6
20260506004009 80 214 5.0 16.0 0.00 0.00 0.00 83 1005.7